Wind_Speed
42 43 43 44 44 45 45 45 45 44 44 44 45 46 47 49 50 51 51 51 51 50 50 49 49 48 48 47 46 44 43 41 39 37 33 32 32 29 26 26 25 24 23 24 28 32 35 36 34 32 30 29 28 27 26 26 26 26 25 23 19 16 17 17 19 19 17 22 27 28 29 29 20 12 20 23 21 22 21 24 25 21 19 13 14 17 17 17
42 43 43 43 44 44 45 46 46 46 45 45 45 45 45 46 48 49 51 51 51 51 50 50 50 49 48 48 47 46 44 43 41 37 34 35 35 30 28 28 26 24 23 23 24 27 31 34 35 32 31 30 29 29 27 26 26 25 23 20 18 16 19 21 22 21 21 27 29 29 30 27 20 15 23 24 21 23 21 23 21 18 18 14 16 17 17 18
42 42 42 43 43 44 44 45 46 46 46 46 46 46 45 45 46 48 49 50 51 51 51 50 50 50 49 48 48 47 45 45 42 37 36 38 36 31 30 29 27 25 24 23 22 23 26 30 34 33 32 31 30 30 28 28 26 25 22 19 18 19 22 23 22 21 22 28 29 31 30 25 21 19 23 23 22 24 22 21 20 17 16 15 17 17 17 17
39 40 41 42 42 43 43 44 44 45 46 46 46 46 46 46 46 46 48 49 50 50 51 51 50 50 49 49 48 47 47 46 43 39 39 40 36 33 32 31 28 26 25 23 22 22 23 26 30 33 33 31 31 31 29 29 26 25 22 18 19 23 26 25 22 22 24 28 31 32 29 24 24 21 20 21 23 25 24 24 22 19 18 19 19 19 19 17
35 37 39 40 41 42 43 43 44 44 44 45 45 46 46 46 46 46 47 47 48 49 50 50 50 50 50 49 49 48 47 47 45 42 42 40 37 35 33 32 30 28 26 24 22 21 22 23 27 30 32 32 31 31 29 28 26 25 22 20 22 25 29 29 28 29 29 31 34 34 27 23 25 23 20 21 24 26 26 25 24 21 20 22 21 21 20 19
35 35 36 37 39 40 41 42 43 43 44 44 44 44 45 45 46 46 46 47 47 48 49 50 50 50 50 50 49 49 48 48 48 44 42 41 38 36 34 33 31 29 28 25 23 22 22 22 24 28 31 32 31 30 29 28 27 26 22 22 24 26 29 31 34 35 33 35 37 32 25 24 25 23 25 24 23 27 28 26 23 20 20 21 22 22 20 20
37 37 36 36 37 37 39 40 41 42 43 43 43 43 44 44 45 45 46 46 46 46 48 49 49 50 50 50 49 49 48 49 49 45 42 42 40 37 35 34 32 31 29 26 24 23 23 22 23 26 29 31 31 29 28 27 27 26 23 24 25 28 29 31 35 36 33 32 33 29 24 25 22 17 23 26 25 28 29 30 27 20 20 21 20 20 19 19
40 39 39 38 37 37 37 38 39 40 41 42 43 43 43 43 44 44 45 45 45 46 46 47 48 49 50 50 49 49 48 48 49 45 43 43 42 39 38 35 33 32 30 28 26 25 25 23 22 24 27 29 30 29 28 27 27 26 23 24 27 28 28 29 33 36 30 24 25 26 23 24 21 16 21 27 28 29 29 30 28 23 21 21 18 16 17 16
40 41 41 41 40 39 38 38 38 38 39 39 41 42 43 43 43 43 44 44 44 45 45 46 47 48 49 49 50 49 46 46 48 47 45 45 43 42 40 37 35 33 32 30 29 28 26 24 23 23 26 28 30 30 30 29 27 25 24 25 28 28 27 29 33 35 27 19 20 23 21 22 22 21 24 28 28 28 30 31 29 26 23 20 18 17 16 16
39 40 41 42 43 42 41 40 40 39 39 39 39 40 41 43 44 44 43 44 44 44 45 46 46 47 48 49 49 47 44 47 50 50 48 47 45 44 41 38 36 34 33 32 31 29 26 24 24 24 26 29 30 32 32 31 29 27 26 26 28 29 28 28 32 33 24 17 19 19 19 21 23 22 23 29 32 30 30 31 29 28 25 21 19 18 17 16
40 40 40 41 42 43 44 43 42 41 41 41 40 40 40 42 43 44 44 44 44 44 44 45 45 46 47 48 48 46 45 49 51 51 50 48 45 44 43 40 37 35 34 33 32 31 28 26 26 25 27 28 29 31 32 32 31 30 30 30 29 29 28 27 30 30 21 16 18 17 17 20 24 24 22 28 35 34 30 28 26 26 25 22 21 20 17 17
44 43 41 41 42 42 43 45 45 44 43 43 42 42 41 41 42 44 45 45 44 44 44 44 44 45 45 46 46 44 46 50 51 51 50 47 45 44 43 42 39 37 35 34 33 32 30 29 28 27 27 27 29 30 30 30 30 32 33 31 29 29 28 26 28 27 19 16 18 18 17 20 22 24 26 29 34 34 31 28 25 24 25 25 23 20 18 18
48 47 45 44 43 42 42 43 45 46 45 45 44 44 44 43 42 43 44 45 45 44 44 44 44 44 45 44 42 43 47 49 51 52 47 43 43 44 44 44 41 39 37 35 35 34 33 32 30 29 28 28 29 30 30 30 30 31 31 29 29 29 27 26 26 23 17 16 18 18 18 20 19 22 28 31 34 36 33 31 28 26 28 28 26 23 21 21
52 50 49 47 46 44 43 42 44 46 46 46 46 46 46 45 44 43 44 45 45 45 45 44 44 43 43 42 41 43 47 49 51 52 46 39 41 44 45 44 42 40 38 36 36 35 35 34 32 31 30 29 29 30 30 31 31 30 29 29 29 28 26 24 24 20 15 15 17 15 18 19 18 24 29 32 35 37 32 31 30 30 30 30 29 27 25 25
56 54 52 50 49 47 46 44 43 44 46 47 46 46 47 46 46 45 44 45 45 46 46 45 44 44 43 41 41 44 47 49 50 50 44 39 41 44 43 43 42 40 39 38 38 37 36 36 34 33 31 30 29 28 28 29 30 30 29 30 29 27 24 22 21 18 15 15 14 14 18 17 18 25 29 31 35 34 29 30 30 29 27 27 28 28 28 27
60 58 57 54 52 50 49 47 44 43 45 47 47 47 47 47 47 46 45 45 45 46 46 46 45 45 43 40 41 45 46 48 49 48 43 41 43 44 43 44 43 42 41 40 39 39 38 37 36 34 33 31 28 27 28 27 28 29 29 29 28 25 23 22 20 17 15 16 15 14 15 13 17 22 28 33 33 28 26 28 28 26 25 27 28 27 27 26
62 61 60 58 55 52 51 50 48 45 44 46 47 47 47 47 48 47 46 45 45 45 46 47 46 45 43 40 40 42 44 45 45 43 41 41 44 46 46 46 45 43 42 41 42 41 40 39 37 36 34 31 29 29 29 26 25 27 27 27 26 23 21 21 22 18 14 15 13 12 13 12 17 20 27 32 29 23 24 27 27 28 29 30 29 28 27 26
65 63 62 60 57 55 53 52 50 47 45 45 47 48 47 47 47 47 46 45 45 45 46 46 46 45 42 40 38 39 42 43 42 41 41 41 44 46 46 46 45 44 44 43 43 43 41 40 38 38 36 32 31 32 29 24 23 24 24 24 23 22 19 18 21 18 14 13 10 18 20 16 16 20 26 29 27 24 24 25 28 31 32 32 31 30 29 28
68 66 65 62 59 57 55 53 52 49 47 46 46 47 47 47 47 47 47 46 46 45 46 46 46 44 43 41 39 41 44 44 44 43 43 44 45 46 47 47 46 45 45 45 44 43 43 43 42 40 37 33 32 32 27 22 22 22 22 21 21 21 17 16 20 17 15 12 12 21 23 18 18 25 30 31 31 28 26 28 31 32 33 34 34 32 28 26
70 69 68 65 62 60 57 55 54 51 48 47 47 47 47 47 47 48 48 48 47 46 46 47 46 46 46 45 43 44 45 45 45 45 45 46 46 46 47 47 47 46 46 46 45 45 45 45 43 39 34 31 33 32 26 23 22 23 23 22 22 20 16 17 20 17 16 14 14 22 25 23 25 32 35 37 35 30 27 30 32 32 33 34 33 30 26 25
70 70 69 67 65 62 60 57 55 53 50 48 47 47 47 47 47 48 48 47 46 46 46 46 45 45 47 47 45 45 45 46 46 46 46 47 47 47 47 48 49 48 47 46 46 46 47 46 42 37 33 31 33 32 28 25 25 25 25 23 21 17 14 16 16 15 16 14 13 22 28 27 30 33 36 40 38 30 24 25 27 27 29 28 27 26 25 25
67 68 68 68 66 64 61 59 57 54 51 49 48 47 47 48 47 48 48 47 46 45 45 45 44 43 45 47 46 45 45 46 46 46 48 48 48 48 48 48 49 48 47 46 47 48 48 46 41 37 35 34 35 34 30 27 27 27 26 26 23 17 14 16 14 17 21 16 11 21 32 33 33 34 37 38 36 31 23 23 24 21 22 22 21 22 23 24
62 64 65 65 64 63 62 60 58 55 52 50 49 48 48 48 48 48 49 48 46 45 44 43 43 41 42 46 46 45 46 46 45 46 49 50 49 49 48 48 48 48 47 47 48 49 48 45 41 39 37 38 38 35 31 29 30 29 28 28 26 22 19 17 15 19 22 18 14 21 32 36 35 34 36 35 34 31 25 25 25 22 21 19 18 20 22 22
54 58 59 60 61 61 61 60 58 56 53 51 50 49 48 48 47 47 47 47 45 44 42 42 42 40 41 45 46 45 45 46 45 45 47 48 48 47 48 48 47 47 47 47 47 47 46 42 39 39 39 38 38 36 33 31 31 31 29 28 27 25 23 15 14 21 23 23 22 23 29 35 35 33 34 32 30 29 27 26 26 24 23 21 19 20 22 22
46 50 53 55 57 58 59 60 58 56 54 52 51 49 48 47 47 46 47 47 45 42 41 42 41 38 40 46 47 45 46 46 44 42 43 45 45 45 47 47 46 46 46 46 46 46 45 42 39 39 39 39 38 36 34 32 32 32 30 29 28 26 27 17 16 24 27 28 28 28 30 33 33 33 33 30 29 29 28 26 26 26 26 26 24 23 24 23
35 41 45 47 49 53 56 57 56 55 54 53 51 49 48 47 46 45 45 46 44 41 40 41 39 37 40 45 46 45 46 44 41 40 41 43 43 44 46 46 45 45 45 45 45 46 44 42 40 40 40 39 38 37 35 33 34 34 31 30 30 27 31 26 20 26 29 30 30 27 27 32 33 32 30 27 27 30 30 29 28 26 28 29 29 28 28 28
24 31 36 37 40 46 51 53 53 52 53 52 50 49 48 46 45 43 42 43 40 38 39 39 37 35 38 42 43 43 43 40 39 40 41 42 42 45 47 46 45 45 45 45 46 46 44 43 42 42 41 40 39 38 36 35 36 34 32 33 31 27 33 33 25 26 28 29 28 26 24 28 32 32 29 26 26 28 30 32 31 28 28 28 28 29 29 31
20 25 26 28 34 40 46 48 48 48 50 51 49 48 47 45 43 40 40 41 37 35 38 38 36 33 36 41 42 40 38 37 38 39 42 43 42 44 47 47 45 45 46 47 47 46 43 43 44 42 42 42 40 38 36 35 36 34 34 34 30 28 33 31 24 26 32 31 28 31 31 29 32 34 34 31 29 28 27 28 29 28 27 27 27 27 29 30
20 23 23 25 31 35 40 41 42 44 47 49 48 46 45 43 41 39 39 39 34 34 37 38 36 35 37 41 41 40 39 38 38 39 42 44 42 43 46 47 45 44 45 46 45 44 43 42 43 42 41 40 39 37 36 36 36 35 36 35 31 31 34 27 23 27 33 35 32 36 37 34 34 37 37 35 32 29 27 25 26 27 27 28 28 28 29 29
20 23 23 24 28 30 33 36 37 39 43 46 45 43 43 41 40 39 38 36 34 35 36 36 35 34 36 40 40 40 40 39 38 41 43 43 41 42 44 46 45 44 44 45 44 43 42 40 42 42 40 39 37 36 36 36 36 36 35 33 33 35 33 27 28 28 28 33 35 35 36 34 36 41 42 39 35 32 30 30 31 31 30 30 30 30 30 29
18 20 22 23 24 27 29 31 34 36 39 42 42 41 40 39 39 38 35 34 35 36 35 33 33 33 33 35 37 38 39 38 39 42 46 45 43 44 45 46 47 46 45 45 44 43 42 41 42 41 38 39 38 38 38 37 37 37 35 33 35 38 35 30 32 32 29 33 34 33 32 31 36 43 44 39 34 31 32 32 33 32 31 30 31 31 31 31
15 17 21 22 22 23 25 26 31 32 30 35 39 39 38 37 37 35 32 33 34 34 32 31 29 30 30 31 35 37 36 37 40 42 46 46 44 45 46 47 48 48 48 48 45 43 44 43 42 39 38 40 40 40 41 38 38 39 36 35 37 40 41 38 36 35 34 33 30 30 31 31 35 41 41 37 33 30 30 30 30 30 31 31 31 31 31 32
11 14 17 20 20 22 24 26 30 30 28 31 37 37 37 36 31 28 29 32 33 29 27 27 26 25 28 31 34 36 35 36 38 41 45 45 43 44 45 46 47 46 46 47 45 44 44 43 41 39 39 40 40 42 43 41 42 42 39 38 39 40 45 47 41 36 34 28 25 26 27 31 36 39 37 34 32 31 29 27 27 28 29 30 31 31 31 31
9 12 14 18 20 22 25 26 29 31 30 30 34 35 34 31 28 27 28 30 32 30 24 22 23 23 26 29 31 34 36 37 37 40 45 46 44 45 45 45 46 44 43 45 45 44 43 43 43 41 40 40 42 42 42 41 41 41 39 39 40 40 44 48 45 39 33 26 23 24 25 29 35 37 36 35 33 33 30 27 26 27 28 30 30 30 30 29
8 10 13 16 19 23 28 26 23 26 28 30 32 31 28 29 31 31 30 29 29 29 24 19 20 22 24 26 28 31 34 36 37 40 44 46 44 44 45 45 45 44 44 44 43 42 42 43 41 38 37 39 42 41 39 38 40 40 38 40 42 41 40 44 46 42 35 27 24 27 31 35 37 36 36 35 34 33 31 28 27 29 30 29 28 28 27 28
7 9 12 15 20 28 32 26 20 24 28 30 30 29 30 33 35 33 33 31 25 23 23 21 21 22 23 25 27 30 32 33 36 40 43 44 42 42 44 44 45 45 45 43 41 41 43 42 39 35 35 37 39 39 39 39 39 40 40 41 43 39 36 37 43 45 40 31 27 29 34 37 38 38 37 36 34 32 31 30 28 28 29 28 27 26 25 25
6 9 12 17 26 32 30 24 24 26 28 30 31 34 36 36 37 35 33 30 23 20 23 23 21 20 21 23 25 29 32 33 36 39 42 43 42 42 43 43 45 43 42 41 38 38 42 40 36 34 33 36 37 35 37 39 39 39 40 41 39 37 36 35 36 41 44 39 34 33 34 36 37 39 40 38 37 35 33 30 27 25 27 27 28 28 27 26
10 10 16 25 32 31 25 21 24 26 29 33 36 39 39 38 38 36 33 30 24 21 23 22 21 17 14 17 21 27 31 34 37 38 40 41 40 42 43 44 45 42 40 40 36 36 39 36 33 35 33 34 35 31 30 36 40 39 36 35 37 38 39 40 36 36 41 44 43 41 39 40 41 41 40 39 38 37 34 31 28 26 26 26 27 29 28 28
17 14 21 32 33 28 22 21 25 31 35 39 41 41 40 40 39 36 34 32 27 24 24 23 23 21 17 15 17 23 29 33 36 37 39 40 38 40 42 43 44 42 41 41 38 35 37 34 34 37 35 31 33 33 32 34 38 39 32 30 35 39 39 39 38 36 36 40 44 46 46 47 46 45 43 41 40 39 37 34 31 29 29 28 27 27 27 27
17 13 19 29 28 23 23 26 33 39 42 45 44 40 40 39 38 37 36 33 29 26 25 22 20 22 23 22 19 19 23 31 36 36 37 36 33 35 39 42 43 41 42 43 40 36 36 34 34 33 31 32 36 36 33 33 37 40 36 31 34 39 36 34 36 37 36 36 39 44 47 46 46 45 43 42 41 40 39 37 33 31 32 32 30 28 28 28
17 14 16 22 22 24 31 36 41 45 46 46 40 35 38 37 35 36 36 34 32 27 24 21 18 21 25 26 24 18 20 31 36 34 35 34 30 31 35 40 42 41 43 44 42 39 35 31 30 29 30 34 37 31 25 29 36 39 38 34 35 40 38 34 36 38 38 37 36 39 40 39 39 40 40 40 39 37 36 35 33 31 32 32 32 30 29 28
19 19 18 21 25 32 38 42 45 46 45 40 33 31 36 36 33 34 33 33 33 28 24 22 20 24 28 28 27 23 24 33 35 30 28 27 26 27 30 36 40 41 43 45 43 39 33 28 29 30 30 30 28 24 20 26 35 38 37 35 36 41 42 40 39 38 36 37 36 35 35 34 33 34 36 38 38 37 35 32 30 28 29 30 32 31 30 29
20 20 19 24 32 38 41 44 45 44 39 34 30 31 34 35 34 35 32 31 32 30 26 25 25 28 31 31 28 26 29 35 34 27 21 20 20 23 25 29 35 39 43 45 42 36 32 32 33 34 33 27 22 20 19 25 35 38 37 36 37 40 42 42 41 38 34 32 34 36 35 34 32 31 31 32 34 36 35 33 31 28 27 29 29 30 30 30
23 22 19 25 34 39 41 42 40 38 34 29 28 31 35 36 36 35 31 30 32 31 27 28 29 29 32 32 28 28 32 35 33 27 20 19 18 19 21 23 30 38 43 45 42 37 35 37 37 36 35 30 24 23 24 27 33 37 37 37 38 37 36 35 37 40 38 30 28 32 34 33 33 32 31 29 27 28 28 28 31 31 31 29 28 28 29 30
21 21 20 26 34 38 38 37 35 34 30 27 27 31 33 34 35 33 29 29 34 34 30 29 31 31 34 34 30 31 36 36 33 27 23 20 17 17 19 19 24 35 42 44 42 39 36 37 38 37 37 36 34 32 30 28 30 35 38 37 37 36 33 29 28 33 39 35 29 29 30 31 34 34 33 31 28 26 24 23 26 29 30 29 28 27 28 28
19 20 22 28 34 36 34 32 31 29 26 26 27 29 29 30 32 31 29 31 37 36 30 30 33 34 36 35 31 33 38 38 34 31 28 26 21 19 20 18 22 31 38 42 42 39 37 35 37 39 38 38 35 30 27 24 24 30 37 38 36 34 33 31 26 26 31 34 33 32 33 34 35 34 32 31 30 28 27 26 25 25 26 27 27 27 27 28
21 24 27 31 32 30 29 27 26 24 24 24 26 26 25 24 25 27 28 30 36 35 28 29 32 34 37 36 33 34 36 35 34 33 32 29 25 23 21 21 25 28 31 39 41 39 38 35 35 39 40 38 33 26 24 24 22 24 34 41 38 32 31 34 34 29 28 31 34 36 37 37 36 33 30 30 29 27 27 27 26 24 23 24 26 26 26 27
21 24 29 31 28 24 24 22 20 20 20 20 21 20 19 19 20 23 24 27 32 32 28 29 32 34 38 37 34 35 34 33 32 31 31 30 27 27 26 28 32 30 29 36 40 39 39 36 35 38 41 39 35 30 28 27 25 23 29 39 39 33 31 35 37 34 31 32 35 37 38 38 37 34 32 30 29 27 26 26 25 23 22 22 25 26 26 27
24 26 27 27 24 21 20 18 17 18 16 15 15 14 14 17 19 21 23 25 30 31 29 30 32 35 38 37 36 37 37 35 31 29 33 33 31 32 33 34 36 32 30 36 40 41 40 38 36 38 39 37 34 33 32 30 28 22 21 32 39 35 31 35 39 39 36 36 37 37 37 38 38 37 35 33 30 29 28 28 27 25 22 21 24 26 26 26
26 26 24 24 23 21 18 15 15 17 15 14 14 12 12 16 19 22 24 26 30 32 32 31 32 35 37 37 37 39 38 36 31 30 34 35 32 34 37 37 36 33 31 35 40 41 40 40 40 39 38 36 34 34 34 32 31 26 23 30 38 37 35 37 39 41 42 40 40 39 37 38 38 38 37 35 31 29 29 29 28 27 24 22 22 25 26 26
23 23 22 21 20 18 17 14 14 15 15 13 12 12 13 15 17 21 25 27 30 33 33 33 32 34 36 36 36 36 36 34 30 30 33 31 30 35 39 38 37 34 32 35 37 39 39 41 42 40 38 37 35 34 34 33 32 31 29 33 37 38 38 38 39 42 45 44 42 40 38 38 39 38 37 35 32 29 28 27 27 26 25 25 24 24 25 26
19 19 18 18 17 16 14 13 11 11 10 12 12 12 13 14 15 19 24 28 33 35 35 33 30 30 33 35 34 34 34 32 30 30 31 29 32 38 39 38 37 35 35 35 35 37 39 40 42 42 41 39 38 37 36 34 35 36 35 35 37 38 39 40 41 43 46 47 43 40 40 39 38 36 35 34 33 30 27 26 25 24 23 25 26 26 27 26
Wind_Direction
257 256 255 254 253 252 251 251 250 249 248 248 247 246 246 245 244 244 243 243 242 241 241 241 241 241 240 240 240 240 239 240 240 240 240 241 242 242 242 241 241 242 243 243 242 240 238 236 235 234 234 233 232 231 231 233 235 237 239 238 234 225 217 206 207 205 203 221 227 228 234 241 237 220 234 224 210 227 238 242 246 247 244 244 248 245 242 241
257 256 255 254 253 252 251 250 250 249 248 247 247 247 246 245 244 244 243 243 242 241 240 240 240 240 239 239 239 239 239 239 239 238 238 239 240 238 238 240 240 241 241 241 241 239 237 234 233 232 232 230 230 229 229 230 232 234 235 233 225 208 205 205 206 203 208 223 228 231 232 239 238 224 236 230 222 236 238 241 247 248 244 239 244 243 239 240
257 256 255 254 253 253 252 251 250 249 249 248 247 247 246 245 244 244 243 242 242 241 240 239 239 239 239 238 238 238 238 238 237 236 236 238 238 236 236 239 239 239 240 240 239 239 237 234 231 230 229 229 228 227 226 226 228 230 228 227 213 194 197 204 208 208 217 230 230 233 232 234 237 228 235 232 228 238 237 238 241 239 240 239 242 239 235 236
258 256 255 253 252 252 252 252 251 250 249 249 248 247 246 246 244 244 243 242 241 241 240 239 238 238 238 238 237 237 237 237 236 234 235 237 236 235 235 237 238 238 239 239 238 238 237 233 230 228 227 227 227 226 225 224 224 227 224 215 203 198 201 203 214 218 220 232 234 235 235 234 236 230 233 226 219 231 234 233 233 227 231 238 243 244 240 236
259 257 256 254 253 251 251 250 250 250 250 249 248 248 247 246 245 244 243 242 241 240 240 239 238 237 237 237 236 236 236 236 234 232 234 236 235 234 234 235 236 237 238 239 238 238 237 233 229 227 226 226 226 225 225 223 221 223 220 209 205 210 214 209 216 222 216 224 232 234 234 235 236 229 231 227 218 229 235 233 231 223 227 237 242 244 244 240
260 258 257 255 254 252 250 249 249 249 249 249 249 248 247 247 246 245 243 242 241 240 239 239 238 237 236 236 235 235 234 235 233 232 233 235 235 234 233 233 233 235 236 237 237 237 237 234 231 227 225 225 225 225 224 222 218 219 216 213 213 213 220 220 224 230 222 220 229 234 233 234 236 227 231 234 227 233 238 237 234 222 222 234 241 244 245 244
260 259 257 256 254 253 251 250 249 248 248 248 248 248 248 247 247 245 244 242 241 240 239 238 237 236 236 235 234 234 233 234 233 231 232 233 234 232 232 232 231 232 233 233 234 235 236 234 231 227 225 223 223 224 224 223 219 217 215 215 216 211 218 227 233 239 235 228 235 240 235 233 234 228 234 237 232 234 237 237 235 224 221 229 237 242 244 246
259 258 257 256 254 253 252 251 249 248 247 247 247 247 247 247 247 246 244 243 241 240 239 238 237 236 235 234 233 233 233 234 234 231 230 231 232 231 231 230 229 230 230 230 231 232 233 233 231 227 225 222 221 222 222 222 218 216 217 217 220 217 216 227 238 244 243 240 246 248 241 236 230 220 228 232 231 234 236 237 237 231 226 227 228 232 240 245
260 258 257 256 254 253 252 251 249 249 248 247 246 246 246 246 246 245 244 243 241 239 239 238 237 236 235 234 233 232 232 233 233 230 228 228 230 230 229 228 227 228 228 228 228 231 232 232 231 226 223 221 219 220 219 219 216 212 215 219 224 224 218 223 236 243 242 237 240 244 242 238 229 219 224 230 230 231 233 236 239 237 234 233 232 234 237 241
261 260 258 256 254 253 252 251 249 248 248 247 247 246 245 245 245 245 244 243 241 240 238 238 237 236 235 234 233 232 231 231 231 230 227 226 227 228 228 227 226 226 226 226 227 229 230 229 229 225 222 221 218 218 218 217 213 209 211 217 224 227 225 226 236 243 243 233 232 237 235 228 223 219 227 235 233 229 228 233 238 239 239 236 237 237 235 236
261 260 260 258 255 253 252 251 249 248 247 246 246 246 245 244 244 244 243 242 241 240 238 237 236 236 235 234 233 231 229 230 231 230 227 226 226 227 228 227 225 224 224 225 225 225 226 225 226 225 223 223 221 220 220 217 212 210 211 215 221 226 228 229 238 245 243 234 231 232 226 218 214 209 213 231 238 234 226 231 237 240 242 240 237 236 233 233
261 260 259 259 257 255 253 251 249 248 246 245 245 245 245 244 243 243 242 241 241 240 239 237 236 236 235 234 232 230 230 231 232 231 228 225 225 225 228 227 224 223 223 223 224 223 224 224 225 226 224 223 223 222 224 221 217 216 214 216 221 227 229 229 237 244 242 235 232 229 221 218 213 201 203 220 237 237 225 226 232 235 240 242 239 237 238 237
259 259 259 258 258 257 255 253 251 248 246 245 244 243 243 243 243 242 242 241 240 239 239 237 236 235 234 233 230 229 230 230 231 232 228 225 226 225 226 227 224 222 222 222 222 221 222 223 224 225 224 224 222 220 222 220 220 222 220 219 222 228 231 231 237 243 242 237 234 232 225 221 208 195 201 215 232 236 227 225 231 233 234 239 241 241 242 242
259 258 257 257 257 257 256 254 252 250 247 245 243 242 242 242 242 241 241 240 239 238 238 237 236 235 234 231 229 228 230 230 230 232 227 221 225 227 226 227 225 223 221 221 221 221 221 221 222 223 223 226 224 223 223 217 217 222 223 222 223 228 231 234 240 241 241 237 236 232 226 221 198 193 206 216 230 235 230 229 234 238 237 239 243 244 246 246
259 258 256 256 256 256 255 254 252 251 249 246 244 242 241 240 240 239 239 239 238 237 236 236 235 235 233 229 227 228 229 229 230 231 227 219 221 225 225 226 225 222 220 219 220 220 220 221 222 222 224 225 225 228 227 221 216 218 221 221 222 226 230 234 238 240 239 233 231 227 228 221 189 196 215 222 233 239 235 236 238 243 245 244 244 244 246 246
258 257 256 255 253 253 254 254 252 251 249 247 245 243 241 240 239 238 238 237 237 236 235 235 234 233 232 228 226 227 228 229 230 230 226 220 219 222 223 223 222 221 218 218 218 218 218 220 221 221 222 223 224 227 228 224 220 219 220 220 221 223 229 234 232 234 237 232 228 222 227 216 179 197 221 226 236 242 239 241 243 246 247 243 243 243 245 246
258 256 255 254 253 252 252 252 251 251 250 248 245 243 241 241 239 238 237 236 235 235 235 234 232 232 231 229 227 229 230 230 231 230 226 221 220 221 221 221 221 219 218 217 217 218 218 219 220 220 221 222 223 226 226 223 222 222 220 221 221 220 227 234 231 225 227 235 227 198 195 191 179 201 223 227 237 242 237 240 242 242 241 241 244 244 244 245
257 256 254 253 252 251 250 250 249 249 249 248 245 243 242 241 240 238 237 235 234 234 234 233 232 231 230 228 226 227 228 228 228 227 225 222 220 220 220 221 221 219 218 216 217 218 218 219 219 219 221 221 222 225 226 222 220 222 221 221 223 224 227 235 238 227 223 234 198 173 181 183 191 215 227 232 241 243 237 238 239 239 240 241 243 243 242 243
255 254 253 252 251 250 248 248 248 247 247 247 245 243 242 242 241 238 236 235 234 232 232 232 230 230 229 226 223 223 224 224 223 221 221 220 220 220 219 219 220 219 218 217 217 218 218 219 218 219 220 219 223 227 225 219 218 219 217 217 221 224 224 234 243 230 223 228 175 176 186 177 191 213 219 226 234 238 234 234 236 238 240 241 242 242 243 245
252 252 251 250 249 248 247 246 246 245 245 245 244 242 241 241 240 238 235 234 233 232 231 231 229 228 227 224 221 221 222 222 221 219 219 219 218 219 218 218 219 219 218 218 217 218 218 219 220 222 221 218 223 225 221 216 215 215 211 210 216 220 217 225 238 232 224 221 181 182 185 178 194 210 216 222 228 234 232 232 236 237 242 246 247 250 250 250
250 249 249 248 247 246 245 244 243 243 243 243 242 241 240 240 239 238 236 234 233 233 232 231 229 227 228 226 222 221 222 222 221 217 218 218 218 218 217 217 218 218 218 217 217 218 219 220 220 220 217 215 221 222 217 212 212 214 209 204 206 212 210 208 228 243 238 233 203 188 188 192 205 216 222 223 228 239 240 238 240 239 244 249 254 255 252 250
248 247 246 245 245 243 243 242 241 241 240 240 240 239 238 238 237 236 234 233 232 232 232 232 230 226 228 228 224 221 222 223 222 218 216 217 217 217 217 217 217 218 218 217 217 219 220 220 218 216 213 212 217 219 214 209 211 214 213 209 198 187 186 187 210 242 242 245 235 201 200 209 214 220 227 227 232 245 249 248 248 243 243 248 256 256 250 248
245 244 243 242 241 240 239 238 238 237 237 237 236 236 236 236 236 234 233 232 231 230 230 231 230 226 226 229 227 223 222 224 223 220 218 217 216 216 216 216 216 216 217 218 219 220 221 220 216 214 213 212 216 218 212 208 211 213 214 217 203 178 170 180 205 232 238 244 240 215 212 221 223 223 228 231 237 247 249 248 248 242 237 239 247 251 248 245
242 240 238 238 238 237 236 235 234 233 233 233 232 233 233 233 234 234 233 231 230 230 229 228 228 224 224 228 227 223 222 223 222 221 220 219 216 215 216 216 215 216 217 218 220 221 221 220 217 215 215 215 216 217 213 208 212 214 212 217 211 183 163 175 217 228 234 234 231 230 223 223 228 226 227 230 236 244 246 243 240 239 238 234 238 245 247 243
238 236 234 234 234 233 233 232 230 229 229 229 229 229 230 231 232 231 231 230 227 227 228 228 227 223 221 225 225 222 221 222 221 220 221 221 218 216 217 215 215 216 216 217 219 221 220 218 217 216 216 216 216 217 213 209 212 215 212 215 215 188 159 165 221 226 228 224 225 238 231 223 229 227 225 228 231 237 240 241 240 240 242 243 244 248 249 244
233 231 229 229 228 229 230 229 227 225 225 225 225 226 226 228 229 229 230 230 226 224 225 227 226 223 222 226 226 223 221 220 219 218 218 220 217 216 217 216 214 215 215 216 218 220 219 217 216 216 216 216 216 217 212 209 211 214 212 211 215 197 164 164 203 224 232 230 231 243 234 227 233 232 229 228 229 234 237 238 239 240 245 249 251 252 251 250
224 223 221 222 222 223 226 226 223 222 222 222 223 224 224 224 226 226 228 229 226 223 223 225 225 223 224 227 227 225 223 218 216 215 215 217 215 214 216 215 213 214 214 215 217 218 218 217 215 215 216 216 216 217 213 208 211 213 210 206 213 206 174 169 193 218 231 232 235 241 232 228 235 236 239 237 234 238 240 240 242 245 248 249 252 254 254 254
206 207 208 214 215 217 222 221 219 218 218 219 220 220 221 222 223 223 224 225 224 220 220 221 221 219 221 225 224 223 223 218 216 215 215 215 212 211 215 214 211 212 214 215 216 217 217 218 217 214 215 216 215 216 214 210 210 211 208 203 208 202 179 176 193 210 222 227 233 239 238 239 238 234 236 239 239 238 237 240 243 246 248 249 253 255 256 257
192 189 190 203 208 213 219 217 213 213 214 216 217 217 218 218 219 219 220 221 219 217 216 217 218 217 217 221 219 217 217 215 212 213 215 215 211 210 213 213 210 210 213 215 216 216 216 219 220 217 216 217 216 216 215 213 210 210 210 204 201 195 182 181 190 202 221 228 233 241 244 246 245 240 240 241 242 241 237 240 244 247 252 254 255 256 256 259
183 180 181 194 202 209 214 210 207 208 210 212 213 214 216 215 215 215 216 216 214 214 213 215 217 215 216 220 217 214 214 211 207 209 212 213 211 209 211 212 210 208 211 213 214 215 215 218 222 220 216 217 218 216 215 215 210 209 211 204 196 194 187 185 190 201 222 228 228 237 244 245 248 251 252 249 247 244 239 241 244 248 254 254 253 253 254 258
177 177 181 191 200 205 206 202 199 201 205 209 208 209 211 212 213 212 210 211 214 214 212 213 216 215 216 219 218 214 212 208 205 208 211 209 207 208 208 210 210 207 209 211 211 212 213 214 220 221 217 215 216 215 215 214 212 209 209 206 199 194 193 193 193 199 217 224 224 231 237 241 246 251 255 257 255 243 233 235 240 245 249 250 249 250 252 256
180 184 189 195 200 202 197 190 188 190 196 203 205 204 204 207 210 207 203 206 212 215 213 212 215 216 215 215 215 213 212 211 207 208 212 210 205 206 208 210 211 208 208 210 208 209 212 213 216 219 218 216 214 214 214 211 212 210 203 204 204 195 195 198 195 197 210 222 227 231 233 233 238 246 252 254 255 247 236 235 238 243 246 248 249 251 252 254
192 192 195 199 197 192 184 177 177 177 181 195 200 199 200 200 198 195 197 202 207 210 211 213 212 212 213 212 210 208 208 212 211 209 213 212 205 204 207 209 211 209 209 210 206 206 210 211 211 213 216 217 215 216 215 211 212 211 202 202 206 199 198 199 196 196 205 219 229 229 229 227 227 237 246 249 252 252 247 240 239 242 244 246 249 251 252 253
204 198 199 196 186 176 168 165 169 173 178 188 192 193 195 189 177 178 189 198 205 205 203 210 212 208 210 209 206 206 206 208 209 210 214 213 205 202 204 207 209 208 208 211 208 205 209 211 210 210 211 214 215 214 215 213 213 213 204 202 207 203 201 201 197 196 199 210 223 223 222 223 225 233 243 249 253 254 252 247 243 242 243 246 249 250 250 251
211 204 198 188 178 165 153 147 158 173 179 182 184 184 179 168 165 172 177 184 200 204 195 196 203 202 203 201 199 203 208 207 206 209 215 215 208 203 204 206 208 206 205 210 210 206 209 213 212 209 208 214 217 215 214 211 213 215 203 201 210 208 203 204 202 200 201 206 217 223 224 226 229 237 243 248 251 252 251 249 246 245 246 249 251 250 250 250
206 196 190 180 169 155 143 140 160 178 178 175 171 164 157 159 166 172 175 179 191 200 193 188 188 191 195 195 193 198 203 205 206 208 213 216 210 204 204 205 207 206 204 206 208 206 208 210 210 209 208 213 217 217 215 208 209 214 207 206 214 209 202 206 206 205 205 207 213 218 223 225 229 236 241 244 247 248 248 249 250 252 254 253 253 252 251 249
172 177 174 162 153 146 141 151 171 176 170 162 155 152 153 160 168 170 172 175 177 183 187 185 182 182 188 191 191 195 197 197 202 208 212 214 209 205 204 204 207 207 204 204 203 205 209 207 207 211 211 215 218 215 215 210 206 211 212 211 209 201 202 208 208 208 209 211 216 218 219 222 226 233 239 243 247 249 250 252 254 259 262 258 254 254 253 251
116 137 149 147 140 138 143 163 172 163 153 150 152 153 154 159 165 166 166 166 165 173 181 183 179 170 177 191 190 193 195 195 198 205 211 213 208 204 204 204 206 204 202 202 198 201 210 202 199 210 212 217 223 215 212 217 214 212 213 210 203 201 208 212 209 210 211 214 220 222 222 224 227 232 237 239 245 250 253 256 256 258 261 260 256 255 255 254
85 102 135 143 140 138 149 165 161 147 142 147 150 151 154 160 163 163 165 162 161 172 180 185 185 171 164 177 185 190 194 195 199 203 209 211 207 204 204 205 205 201 199 199 192 196 209 202 195 208 212 214 221 216 211 217 216 210 206 205 204 206 214 218 219 219 216 216 221 225 228 231 234 237 239 239 242 247 250 253 255 255 256 258 257 256 257 257
82 87 131 145 145 147 154 153 144 139 141 145 147 150 156 161 162 161 163 161 159 169 179 188 194 183 170 166 170 183 191 193 198 203 207 210 207 205 205 205 205 201 198 196 188 190 206 207 202 211 217 219 223 222 218 216 213 207 202 199 199 203 211 220 225 226 223 220 221 226 231 235 238 240 241 242 244 247 250 253 255 256 255 255 256 254 255 257
88 92 127 143 144 144 144 140 137 137 141 142 143 150 156 158 160 160 159 159 159 166 177 184 188 183 175 166 162 169 185 192 196 201 204 207 208 206 205 205 204 200 197 195 189 189 198 204 205 211 221 226 227 227 219 213 213 209 203 199 195 200 208 215 220 224 225 224 225 230 235 238 240 240 241 243 244 247 251 253 254 255 255 254 253 251 251 253
81 87 106 128 134 135 135 135 135 137 139 139 138 147 154 156 158 157 156 160 163 165 174 182 181 175 172 166 163 166 177 187 191 195 200 204 207 207 205 204 203 199 197 197 193 191 193 193 196 206 218 226 229 229 216 205 207 205 202 202 199 202 208 214 218 220 221 224 226 230 235 238 238 239 240 242 242 244 247 250 250 251 253 252 250 250 250 249
89 91 102 123 131 133 134 135 137 137 137 136 135 146 155 156 156 156 158 165 168 167 173 181 177 170 169 167 167 168 171 179 180 180 191 198 198 203 203 204 203 195 195 198 193 189 192 190 190 200 211 216 223 228 217 200 203 207 207 207 206 208 212 215 219 220 221 226 231 232 234 237 238 240 242 243 244 246 248 249 249 250 252 252 250 249 249 248
95 99 112 128 132 134 136 137 137 136 133 129 136 150 157 157 157 159 161 168 173 169 170 177 174 169 170 168 167 167 171 175 170 168 188 194 186 195 198 199 199 192 192 197 194 190 191 188 187 194 202 205 206 210 208 201 205 212 210 203 204 210 214 216 220 222 223 227 234 237 238 239 240 242 245 245 245 248 250 250 248 247 248 250 249 248 247 246
93 98 116 131 134 136 137 137 136 133 127 124 138 154 159 158 160 163 166 174 177 171 167 172 172 171 172 168 165 167 171 173 167 166 184 189 183 194 196 192 193 190 191 196 195 195 194 188 187 193 200 205 209 212 214 208 205 211 210 202 202 209 211 214 218 220 220 221 224 232 236 236 237 240 243 245 244 244 246 246 244 243 244 247 248 247 246 244
101 110 125 135 136 136 136 137 136 134 128 125 137 153 160 162 166 170 173 177 178 174 169 171 173 174 172 169 166 168 172 175 173 172 178 181 182 187 187 185 186 185 188 192 195 198 198 194 194 197 202 209 214 218 220 214 207 212 214 206 204 211 211 206 209 215 217 219 221 226 230 232 236 240 243 245 244 242 242 242 241 242 244 246 247 247 246 242
108 121 131 136 136 135 135 136 137 134 131 130 136 147 155 163 172 176 179 180 179 176 171 172 176 174 171 170 166 166 173 178 177 175 176 178 180 178 174 175 173 173 181 189 194 199 200 198 197 199 205 210 211 208 209 213 210 210 214 207 201 209 211 202 203 211 217 222 226 229 231 233 237 241 243 244 244 243 242 241 242 244 246 246 245 244 242 239
106 119 129 134 134 132 128 127 130 133 131 131 137 144 151 161 173 180 182 184 181 176 172 174 176 172 172 171 165 166 177 179 178 178 175 174 177 172 166 165 165 169 181 189 193 199 201 200 196 199 207 212 211 204 200 208 210 206 211 210 202 204 209 204 202 207 213 220 226 231 235 237 237 238 241 243 245 247 246 245 246 248 249 248 244 240 239 238
106 114 122 128 130 130 127 121 126 133 130 131 142 147 150 159 173 181 182 182 181 178 175 175 174 172 173 171 167 172 179 179 180 181 174 172 174 167 162 163 166 174 187 192 196 198 199 200 198 199 206 212 210 202 195 201 208 205 203 206 204 203 207 207 205 206 210 216 222 228 235 238 237 237 241 245 248 251 253 254 254 253 251 247 241 236 235 236
105 109 113 120 127 133 136 130 133 144 145 146 154 161 164 166 176 184 184 183 182 179 177 176 174 174 174 172 172 177 178 177 181 180 173 172 172 166 162 165 172 182 190 194 198 198 197 201 202 201 204 209 208 201 196 197 202 202 196 198 202 204 206 208 209 210 211 215 220 225 229 236 238 238 240 243 246 252 256 257 256 254 248 243 238 234 232 232
104 108 112 119 127 135 143 145 151 164 174 178 179 182 184 181 181 185 186 187 185 181 179 177 174 175 176 175 178 179 178 179 183 180 175 172 168 166 167 170 176 184 191 197 202 203 200 202 204 202 201 206 207 201 198 196 195 198 201 201 203 205 207 211 215 214 212 213 220 225 227 233 238 239 240 242 244 250 256 257 256 254 248 241 237 234 231 229
97 104 109 116 121 124 129 133 142 156 178 196 201 203 204 203 197 192 190 187 186 184 180 175 174 179 181 181 183 184 181 182 184 179 176 173 167 166 170 174 179 183 189 198 205 206 203 204 206 204 201 203 206 203 199 196 191 194 202 208 209 210 211 213 216 215 211 211 218 224 228 232 237 239 240 241 243 249 254 255 253 250 243 236 233 232 231 230
Height
5708 5709 5710 5711 5711 5712 5713 5715 5716 5717 5719 5721 5722 5724 5726 5728 5730 5732 5735 5737 5739 5742 5745 5747 5750 5753 5756 5758 5761 5764 5767 5769 5772 5776 5779 5779 5781 5784 5786 5787 5788 5789 5791 5793 5794 5796 5798 5801 5804 5806 5809 5811 5813 5815 5817 5819 5820 5822 5824 5827 5830 5831 5832 5832 5833 5835 5836 5836 5837 5838 5841 5843 5848 5852 5849 5849 5849 5849 5851 5849 5850 5854 5857 5859 5860 5860 5861 5861
5703 5704 5704 5705 5706 5707 5708 5709 5711 5712 5714 5715 5717 5719 5721 5723 5725 5727 5729 5731 5734 5736 5739 5742 5745 5748 5751 5753 5756 5760 5763 5765 5768 5773 5776 5775 5777 5781 5782 5783 5785 5787 5789 5790 5791 5793 5795 5797 5800 5803 5805 5808 5809 5812 5814 5816 5818 5820 5822 5826 5828 5828 5828 5828 5830 5832 5832 5832 5834 5836 5839 5842 5847 5849 5847 5847 5847 5848 5850 5849 5850 5853 5855 5858 5858 5859 5860 5860
5697 5698 5699 5700 5701 5702 5703 5704 5705 5707 5708 5710 5712 5713 5715 5718 5719 5721 5723 5726 5728 5731 5734 5736 5739 5742 5745 5748 5752 5755 5758 5761 5765 5770 5770 5770 5774 5777 5779 5781 5783 5785 5786 5788 5789 5790 5792 5794 5796 5799 5802 5804 5806 5809 5811 5813 5816 5818 5821 5824 5825 5825 5824 5825 5827 5829 5829 5830 5833 5835 5837 5841 5844 5845 5845 5846 5846 5846 5849 5849 5850 5853 5854 5856 5856 5857 5857 5858
5692 5692 5693 5694 5695 5696 5697 5698 5700 5701 5703 5705 5706 5708 5710 5712 5714 5716 5718 5720 5723 5725 5728 5731 5734 5737 5740 5743 5747 5750 5754 5757 5762 5766 5765 5766 5771 5774 5776 5778 5780 5782 5783 5785 5787 5788 5789 5791 5793 5796 5799 5801 5803 5806 5808 5811 5813 5815 5819 5822 5822 5821 5820 5821 5823 5825 5827 5828 5831 5833 5837 5841 5841 5843 5843 5844 5844 5844 5847 5848 5849 5852 5852 5853 5854 5855 5855 5856
5687 5687 5688 5689 5690 5691 5692 5693 5694 5696 5697 5699 5701 5703 5705 5707 5709 5711 5713 5715 5717 5720 5722 5725 5728 5731 5735 5738 5742 5745 5749 5752 5757 5760 5760 5763 5767 5770 5773 5775 5777 5779 5781 5783 5784 5786 5787 5789 5790 5792 5795 5797 5800 5803 5805 5808 5811 5813 5817 5818 5818 5818 5818 5819 5818 5819 5823 5825 5827 5830 5836 5839 5839 5842 5841 5840 5842 5842 5844 5846 5847 5851 5852 5851 5852 5853 5854 5855
5681 5682 5682 5683 5684 5685 5686 5687 5689 5690 5692 5694 5696 5698 5699 5701 5703 5705 5707 5709 5712 5715 5717 5720 5723 5726 5729 5733 5736 5740 5744 5747 5751 5756 5758 5760 5764 5767 5769 5771 5774 5776 5778 5780 5782 5784 5785 5786 5788 5789 5792 5795 5797 5800 5803 5806 5808 5811 5814 5814 5815 5816 5817 5817 5815 5816 5821 5822 5823 5829 5834 5836 5837 5840 5838 5838 5842 5841 5842 5843 5845 5849 5851 5850 5851 5852 5853 5854
5676 5676 5677 5678 5679 5680 5681 5682 5683 5685 5686 5688 5690 5692 5694 5696 5697 5699 5702 5704 5707 5709 5711 5714 5717 5721 5724 5727 5731 5735 5739 5742 5746 5752 5754 5756 5759 5763 5765 5768 5770 5772 5775 5777 5779 5781 5782 5784 5785 5787 5789 5792 5795 5798 5800 5803 5806 5809 5810 5811 5812 5813 5815 5815 5814 5814 5819 5822 5824 5828 5832 5833 5836 5839 5836 5837 5840 5839 5840 5840 5842 5847 5850 5849 5850 5851 5852 5853
5670 5671 5671 5672 5673 5674 5675 5677 5678 5680 5681 5683 5685 5687 5689 5691 5692 5694 5696 5699 5701 5704 5706 5709 5712 5716 5718 5722 5726 5730 5735 5738 5741 5747 5750 5752 5755 5758 5761 5764 5767 5769 5772 5774 5776 5778 5779 5781 5783 5785 5787 5789 5793 5795 5798 5800 5803 5806 5807 5808 5809 5811 5813 5814 5812 5812 5818 5824 5825 5827 5830 5832 5835 5838 5833 5833 5837 5837 5838 5839 5840 5844 5847 5848 5849 5850 5851 5852
5663 5664 5665 5666 5667 5668 5670 5671 5673 5674 5676 5678 5679 5681 5683 5685 5687 5689 5691 5693 5696 5698 5701 5704 5707 5710 5714 5718 5721 5726 5732 5733 5735 5740 5744 5747 5750 5753 5757 5760 5763 5766 5769 5771 5773 5775 5777 5779 5781 5783 5785 5787 5789 5791 5794 5796 5800 5803 5805 5806 5807 5809 5811 5812 5810 5810 5817 5823 5824 5825 5828 5831 5833 5835 5831 5830 5834 5835 5837 5838 5839 5841 5844 5846 5848 5849 5850 5851
5657 5658 5659 5660 5661 5662 5664 5665 5667 5669 5670 5672 5674 5676 5678 5679 5681 5683 5686 5688 5690 5693 5696 5699 5702 5705 5709 5712 5716 5723 5727 5725 5728 5733 5737 5742 5746 5749 5753 5757 5760 5763 5765 5767 5770 5772 5775 5777 5779 5781 5782 5783 5785 5787 5790 5793 5797 5800 5802 5802 5803 5806 5808 5810 5809 5809 5815 5821 5822 5823 5825 5828 5830 5833 5831 5828 5829 5832 5836 5837 5837 5839 5842 5845 5847 5847 5848 5850
5651 5651 5652 5653 5654 5656 5657 5659 5661 5663 5665 5666 5668 5670 5672 5674 5676 5678 5680 5683 5685 5688 5691 5694 5697 5700 5704 5708 5713 5718 5719 5719 5722 5726 5731 5738 5742 5745 5749 5753 5756 5759 5761 5764 5767 5770 5772 5774 5776 5777 5779 5780 5782 5784 5786 5789 5793 5796 5797 5799 5800 5803 5806 5808 5807 5808 5814 5818 5820 5821 5823 5824 5827 5831 5829 5825 5824 5829 5836 5838 5837 5838 5840 5843 5844 5845 5847 5848
5643 5644 5645 5646 5647 5649 5651 5652 5654 5656 5658 5660 5663 5665 5667 5668 5670 5672 5675 5677 5680 5683 5686 5689 5692 5696 5699 5703 5709 5712 5712 5715 5718 5721 5727 5734 5738 5741 5744 5748 5752 5755 5758 5761 5764 5767 5769 5771 5772 5774 5776 5778 5780 5783 5785 5788 5791 5793 5794 5797 5799 5801 5803 5806 5806 5808 5813 5816 5817 5818 5820 5821 5824 5829 5828 5825 5822 5825 5833 5836 5836 5838 5839 5840 5841 5843 5845 5847
5636 5637 5638 5639 5641 5642 5644 5646 5648 5650 5652 5654 5656 5658 5661 5663 5665 5667 5669 5672 5675 5678 5681 5684 5687 5691 5695 5700 5705 5706 5707 5711 5713 5715 5724 5732 5735 5737 5740 5743 5748 5751 5754 5757 5760 5763 5765 5767 5770 5772 5774 5775 5777 5780 5782 5786 5789 5790 5793 5796 5798 5799 5801 5804 5805 5807 5811 5813 5815 5816 5818 5820 5823 5826 5826 5824 5821 5822 5830 5833 5834 5837 5838 5838 5839 5841 5844 5845
5627 5629 5630 5632 5633 5635 5637 5639 5641 5643 5645 5648 5650 5652 5655 5657 5659 5661 5663 5666 5669 5672 5675 5679 5683 5686 5690 5696 5700 5700 5702 5706 5708 5710 5720 5729 5731 5733 5736 5739 5744 5748 5751 5754 5756 5759 5762 5764 5767 5769 5771 5773 5775 5777 5778 5782 5785 5788 5791 5794 5795 5797 5800 5802 5804 5807 5810 5811 5813 5815 5816 5819 5822 5823 5822 5820 5818 5821 5828 5831 5832 5833 5835 5837 5838 5840 5842 5843
5618 5620 5622 5624 5626 5628 5630 5632 5634 5636 5638 5641 5643 5646 5649 5651 5653 5655 5658 5661 5664 5667 5670 5674 5678 5681 5686 5691 5693 5695 5698 5701 5703 5707 5717 5724 5726 5728 5732 5736 5739 5743 5747 5750 5752 5755 5758 5760 5763 5766 5768 5771 5773 5775 5776 5779 5782 5785 5787 5790 5792 5795 5798 5801 5802 5805 5807 5809 5811 5813 5814 5817 5820 5821 5819 5816 5815 5821 5827 5828 5829 5830 5832 5834 5836 5838 5840 5841
5607 5610 5612 5615 5618 5620 5622 5625 5628 5630 5632 5634 5636 5640 5643 5645 5647 5649 5652 5655 5658 5662 5665 5669 5672 5676 5682 5686 5687 5690 5693 5696 5699 5705 5713 5718 5720 5723 5727 5730 5734 5738 5742 5745 5748 5751 5754 5757 5760 5763 5766 5768 5771 5772 5774 5777 5780 5782 5784 5787 5790 5794 5796 5798 5801 5804 5805 5807 5810 5811 5813 5816 5818 5819 5818 5814 5814 5821 5826 5825 5827 5828 5829 5831 5833 5835 5837 5839
5596 5599 5602 5605 5609 5612 5614 5617 5620 5623 5625 5627 5630 5633 5636 5638 5641 5643 5646 5649 5653 5657 5660 5663 5668 5673 5677 5681 5683 5687 5691 5694 5698 5703 5708 5713 5715 5718 5721 5725 5729 5734 5738 5741 5743 5746 5750 5753 5756 5760 5762 5765 5768 5769 5771 5775 5778 5780 5782 5785 5789 5792 5794 5796 5799 5802 5804 5806 5809 5810 5812 5814 5815 5817 5816 5813 5815 5820 5823 5823 5825 5825 5827 5828 5830 5833 5835 5836
5584 5587 5591 5595 5599 5603 5606 5609 5612 5615 5618 5620 5623 5627 5630 5632 5634 5637 5640 5644 5648 5652 5655 5658 5663 5668 5671 5675 5680 5684 5686 5690 5694 5699 5703 5707 5710 5713 5717 5721 5725 5729 5733 5736 5739 5742 5746 5750 5753 5756 5759 5763 5764 5765 5769 5773 5776 5779 5782 5785 5788 5790 5793 5794 5796 5801 5803 5805 5808 5809 5810 5811 5813 5814 5813 5813 5814 5817 5820 5821 5822 5823 5825 5826 5827 5829 5831 5833
5572 5576 5580 5584 5589 5593 5597 5601 5604 5608 5611 5614 5617 5620 5624 5626 5628 5631 5634 5638 5642 5646 5649 5653 5658 5662 5665 5670 5674 5676 5679 5683 5687 5692 5696 5701 5704 5708 5712 5716 5720 5724 5728 5732 5735 5739 5742 5745 5748 5751 5756 5760 5761 5763 5769 5773 5775 5778 5781 5784 5786 5788 5792 5792 5793 5798 5801 5803 5807 5808 5808 5809 5811 5810 5809 5809 5811 5815 5817 5818 5819 5821 5822 5823 5824 5827 5830 5832
5560 5563 5567 5573 5578 5583 5588 5592 5595 5600 5604 5607 5610 5614 5617 5619 5622 5625 5629 5633 5637 5640 5643 5648 5653 5656 5658 5662 5666 5669 5673 5677 5682 5687 5691 5695 5699 5703 5707 5711 5715 5719 5723 5728 5732 5735 5738 5740 5745 5750 5755 5758 5760 5763 5768 5771 5773 5775 5778 5781 5784 5786 5790 5791 5790 5794 5798 5802 5806 5807 5806 5806 5806 5805 5805 5806 5807 5811 5815 5815 5817 5819 5820 5821 5823 5826 5829 5830
5546 5551 5555 5561 5567 5572 5578 5583 5587 5592 5597 5600 5604 5607 5610 5613 5616 5620 5624 5628 5632 5635 5639 5643 5648 5651 5653 5656 5661 5665 5669 5672 5676 5682 5685 5689 5694 5698 5702 5707 5710 5715 5719 5724 5728 5730 5733 5737 5743 5748 5753 5756 5757 5760 5765 5768 5770 5772 5774 5777 5781 5785 5788 5789 5789 5792 5796 5800 5805 5807 5805 5803 5803 5803 5802 5803 5804 5808 5813 5814 5816 5819 5820 5821 5822 5824 5826 5827
5532 5537 5543 5549 5555 5561 5567 5573 5578 5584 5589 5593 5597 5601 5603 5606 5610 5614 5618 5622 5626 5631 5635 5639 5644 5648 5649 5652 5657 5662 5665 5668 5672 5676 5680 5683 5688 5693 5698 5702 5706 5711 5716 5720 5723 5725 5729 5734 5741 5745 5750 5753 5754 5757 5762 5765 5767 5769 5772 5774 5777 5782 5787 5788 5788 5790 5793 5798 5803 5804 5801 5799 5800 5801 5800 5801 5803 5807 5812 5813 5815 5818 5819 5820 5821 5822 5823 5824
5518 5524 5531 5537 5544 5550 5556 5563 5569 5575 5581 5586 5590 5593 5596 5600 5604 5608 5612 5617 5622 5626 5630 5634 5639 5644 5646 5648 5653 5658 5662 5665 5668 5673 5675 5679 5684 5689 5693 5697 5703 5707 5711 5715 5719 5722 5726 5732 5738 5742 5746 5748 5750 5754 5759 5762 5764 5766 5769 5772 5774 5779 5784 5786 5787 5789 5792 5797 5799 5799 5798 5797 5798 5800 5800 5801 5804 5806 5809 5811 5812 5815 5817 5818 5819 5819 5820 5822
5506 5513 5520 5526 5532 5539 5546 5553 5560 5567 5573 5579 5583 5586 5590 5595 5599 5603 5608 5613 5618 5622 5626 5629 5633 5639 5642 5643 5647 5653 5658 5661 5665 5669 5673 5677 5681 5685 5689 5694 5699 5703 5708 5713 5716 5720 5725 5731 5736 5740 5742 5745 5748 5752 5756 5759 5761 5764 5767 5770 5773 5777 5782 5786 5786 5788 5792 5794 5794 5795 5795 5796 5797 5799 5800 5802 5804 5805 5807 5809 5810 5811 5813 5815 5817 5818 5819 5820
5497 5504 5510 5516 5523 5530 5536 5543 5551 5559 5565 5570 5575 5580 5585 5589 5593 5598 5602 5607 5613 5619 5622 5625 5630 5635 5637 5638 5642 5648 5653 5656 5662 5667 5671 5675 5680 5684 5687 5691 5695 5700 5705 5710 5713 5717 5722 5727 5732 5736 5739 5742 5745 5749 5753 5757 5759 5762 5765 5768 5772 5775 5780 5786 5786 5786 5788 5788 5789 5791 5792 5793 5795 5796 5798 5801 5803 5804 5805 5807 5809 5810 5811 5813 5815 5817 5818 5819
5491 5496 5503 5509 5516 5521 5527 5534 5543 5552 5557 5563 5569 5574 5579 5584 5588 5594 5598 5602 5609 5615 5617 5621 5627 5631 5633 5634 5639 5643 5648 5653 5659 5663 5667 5672 5677 5681 5683 5687 5693 5697 5702 5706 5709 5713 5718 5724 5728 5732 5735 5739 5742 5746 5750 5755 5756 5759 5763 5767 5770 5774 5777 5783 5785 5784 5784 5784 5785 5789 5789 5790 5792 5793 5796 5799 5801 5802 5803 5805 5807 5809 5810 5811 5813 5814 5816 5817
5486 5492 5498 5504 5509 5514 5518 5527 5537 5544 5550 5557 5564 5569 5574 5579 5584 5590 5595 5599 5606 5611 5614 5619 5624 5627 5630 5632 5636 5640 5645 5651 5655 5659 5663 5667 5672 5676 5679 5684 5690 5694 5698 5702 5705 5709 5715 5719 5723 5728 5731 5735 5738 5742 5747 5752 5754 5757 5762 5765 5769 5773 5775 5779 5781 5782 5781 5781 5784 5787 5788 5789 5790 5792 5794 5797 5798 5799 5801 5803 5805 5807 5808 5809 5810 5812 5813 5814
5484 5489 5495 5501 5505 5508 5513 5521 5530 5537 5545 5552 5558 5563 5569 5576 5581 5587 5591 5596 5602 5607 5611 5616 5620 5623 5626 5628 5632 5638 5643 5648 5652 5657 5660 5663 5667 5672 5675 5680 5686 5690 5693 5697 5701 5707 5712 5715 5719 5724 5728 5731 5735 5740 5745 5749 5752 5755 5759 5762 5767 5772 5774 5775 5778 5781 5781 5780 5782 5783 5784 5787 5788 5790 5792 5793 5794 5796 5798 5800 5803 5805 5806 5807 5808 5809 5810 5812
5484 5487 5492 5498 5502 5505 5510 5517 5525 5532 5540 5547 5553 5559 5566 5572 5578 5582 5587 5592 5598 5603 5607 5612 5615 5619 5621 5623 5627 5633 5637 5643 5649 5653 5655 5659 5665 5669 5673 5677 5682 5686 5690 5694 5700 5705 5709 5713 5717 5721 5725 5729 5734 5738 5742 5746 5750 5753 5756 5761 5766 5769 5772 5772 5773 5779 5779 5778 5780 5780 5781 5784 5784 5785 5787 5789 5792 5794 5796 5799 5801 5802 5803 5804 5805 5807 5808 5809
5485 5487 5491 5496 5499 5502 5507 5514 5522 5529 5535 5542 5549 5556 5563 5569 5574 5579 5584 5589 5594 5598 5604 5608 5612 5616 5618 5620 5624 5629 5634 5639 5643 5646 5649 5655 5662 5667 5670 5674 5678 5683 5687 5691 5697 5702 5707 5711 5713 5717 5723 5728 5732 5736 5739 5742 5747 5751 5754 5759 5763 5766 5769 5769 5769 5774 5774 5774 5777 5778 5779 5781 5780 5779 5781 5785 5789 5792 5794 5796 5797 5798 5799 5801 5802 5803 5805 5806
5486 5488 5491 5494 5497 5501 5506 5513 5520 5526 5532 5539 5545 5552 5559 5566 5571 5577 5582 5586 5590 5595 5601 5605 5608 5612 5615 5618 5622 5626 5631 5635 5638 5641 5645 5650 5657 5661 5665 5669 5674 5679 5683 5687 5693 5698 5703 5706 5709 5714 5721 5725 5728 5732 5735 5739 5744 5747 5752 5756 5759 5762 5766 5766 5766 5768 5768 5769 5773 5776 5779 5780 5779 5776 5776 5779 5784 5788 5791 5793 5794 5795 5796 5797 5798 5800 5802 5803
5487 5489 5491 5494 5498 5501 5507 5513 5519 5525 5531 5536 5542 5549 5556 5562 5569 5575 5579 5584 5589 5594 5599 5603 5606 5610 5613 5616 5619 5624 5629 5632 5636 5639 5642 5646 5652 5657 5661 5665 5669 5675 5679 5683 5690 5694 5697 5702 5707 5712 5716 5720 5724 5727 5730 5735 5739 5742 5747 5751 5753 5757 5760 5761 5762 5763 5763 5765 5769 5774 5778 5779 5777 5774 5774 5776 5779 5783 5787 5790 5791 5792 5793 5794 5795 5797 5799 5800
5488 5490 5492 5495 5498 5502 5507 5512 5517 5523 5528 5533 5540 5547 5554 5561 5569 5574 5578 5582 5586 5590 5596 5601 5604 5607 5609 5612 5616 5621 5626 5630 5634 5638 5639 5643 5650 5655 5659 5663 5667 5673 5678 5681 5685 5690 5694 5698 5703 5708 5711 5715 5720 5722 5726 5730 5733 5737 5743 5745 5748 5752 5754 5756 5758 5760 5763 5765 5767 5771 5774 5775 5774 5771 5771 5773 5775 5778 5783 5787 5788 5788 5790 5791 5792 5794 5796 5797
5489 5491 5493 5495 5498 5502 5507 5512 5516 5522 5527 5531 5538 5546 5553 5561 5567 5572 5577 5581 5583 5586 5592 5598 5601 5604 5607 5610 5615 5618 5622 5626 5631 5635 5636 5640 5646 5652 5656 5661 5665 5672 5677 5680 5683 5688 5692 5694 5699 5703 5707 5710 5714 5718 5722 5728 5730 5734 5740 5743 5744 5748 5750 5753 5756 5759 5762 5764 5766 5768 5770 5770 5769 5768 5769 5770 5773 5776 5780 5783 5784 5785 5786 5788 5789 5791 5793 5794
5489 5491 5493 5496 5498 5503 5507 5512 5518 5522 5525 5530 5538 5546 5554 5560 5564 5569 5575 5579 5581 5584 5589 5594 5598 5602 5605 5608 5612 5617 5620 5625 5628 5631 5633 5637 5644 5650 5654 5659 5663 5668 5673 5677 5682 5688 5690 5693 5697 5702 5706 5708 5711 5715 5720 5726 5729 5731 5738 5740 5740 5744 5747 5750 5755 5758 5760 5761 5763 5764 5764 5764 5765 5765 5766 5768 5770 5773 5776 5779 5781 5782 5783 5785 5787 5789 5790 5791
5489 5491 5494 5496 5499 5503 5507 5512 5519 5523 5525 5531 5539 5546 5552 5557 5562 5567 5572 5577 5581 5584 5587 5591 5594 5598 5602 5606 5610 5614 5618 5623 5626 5628 5630 5635 5643 5649 5653 5657 5661 5665 5670 5675 5681 5686 5688 5692 5696 5700 5704 5706 5709 5714 5717 5721 5725 5728 5733 5735 5738 5742 5745 5748 5753 5756 5757 5758 5759 5759 5759 5760 5762 5762 5763 5765 5767 5770 5773 5776 5778 5780 5781 5783 5785 5786 5787 5788
5490 5491 5494 5497 5500 5504 5508 5513 5519 5522 5526 5533 5540 5545 5551 5556 5561 5566 5571 5576 5581 5584 5586 5589 5593 5597 5601 5605 5608 5611 5615 5619 5623 5626 5629 5633 5640 5646 5651 5655 5659 5664 5670 5674 5680 5684 5687 5691 5696 5698 5702 5703 5705 5711 5716 5718 5721 5724 5729 5734 5738 5742 5743 5745 5749 5751 5753 5755 5755 5755 5756 5758 5759 5759 5761 5764 5765 5768 5770 5773 5776 5778 5779 5780 5782 5783 5784 5785
5491 5492 5495 5498 5502 5505 5510 5515 5519 5522 5528 5534 5540 5545 5550 5556 5560 5565 5570 5575 5580 5583 5586 5589 5592 5596 5601 5605 5608 5610 5613 5616 5620 5623 5627 5631 5637 5644 5649 5653 5656 5662 5669 5673 5678 5683 5686 5691 5694 5695 5699 5701 5704 5709 5713 5716 5718 5721 5727 5733 5736 5738 5739 5741 5743 5746 5749 5750 5750 5751 5753 5755 5756 5757 5759 5762 5763 5765 5768 5770 5773 5775 5776 5777 5779 5780 5781 5782
5494 5496 5498 5501 5504 5507 5511 5515 5519 5524 5529 5536 5541 5546 5550 5555 5560 5564 5569 5574 5578 5582 5586 5588 5591 5594 5598 5603 5607 5610 5612 5615 5619 5622 5625 5629 5636 5642 5646 5651 5655 5660 5666 5671 5676 5681 5684 5688 5691 5692 5696 5700 5702 5705 5709 5712 5715 5718 5723 5728 5733 5735 5736 5738 5740 5742 5745 5746 5747 5749 5750 5751 5753 5754 5757 5760 5760 5762 5764 5767 5770 5772 5773 5774 5775 5776 5777 5779
5499 5501 5503 5505 5507 5509 5513 5517 5521 5525 5531 5538 5543 5548 5552 5556 5560 5563 5568 5574 5578 5582 5585 5588 5591 5593 5596 5600 5604 5609 5613 5616 5618 5621 5624 5629 5635 5640 5643 5648 5653 5659 5664 5669 5673 5678 5682 5686 5689 5691 5694 5696 5697 5701 5706 5710 5713 5715 5718 5723 5728 5731 5732 5735 5738 5739 5741 5743 5744 5745 5746 5748 5751 5753 5755 5757 5757 5759 5761 5764 5767 5769 5770 5771 5772 5773 5774 5775
5503 5504 5506 5508 5510 5512 5515 5519 5524 5529 5535 5541 5546 5550 5553 5557 5561 5564 5569 5574 5578 5581 5585 5588 5591 5594 5596 5598 5602 5607 5612 5615 5618 5621 5624 5628 5632 5636 5641 5646 5651 5657 5662 5666 5669 5674 5679 5683 5688 5689 5690 5691 5694 5699 5706 5709 5711 5713 5716 5720 5724 5727 5729 5731 5733 5735 5737 5739 5740 5742 5744 5746 5749 5750 5752 5753 5755 5757 5759 5761 5763 5765 5766 5767 5768 5769 5770 5771
5507 5508 5509 5511 5513 5516 5520 5524 5528 5533 5539 5544 5548 5552 5555 5558 5563 5567 5571 5575 5578 5581 5585 5588 5591 5593 5595 5598 5601 5604 5608 5612 5617 5620 5624 5627 5631 5636 5640 5644 5650 5655 5659 5663 5667 5672 5677 5681 5685 5687 5687 5690 5695 5698 5703 5707 5710 5712 5715 5718 5722 5725 5726 5727 5729 5732 5735 5737 5738 5739 5741 5743 5745 5746 5748 5750 5752 5754 5756 5758 5760 5761 5762 5763 5764 5765 5767 5768
5513 5513 5514 5516 5517 5520 5524 5528 5532 5537 5542 5547 5550 5553 5556 5559 5563 5568 5572 5575 5578 5581 5585 5588 5590 5593 5595 5598 5601 5603 5605 5609 5615 5620 5624 5628 5632 5635 5639 5642 5647 5652 5657 5662 5666 5670 5675 5679 5682 5685 5687 5691 5695 5697 5700 5705 5707 5708 5711 5715 5718 5721 5723 5726 5729 5731 5734 5735 5735 5737 5738 5740 5742 5743 5744 5747 5749 5751 5752 5754 5756 5758 5758 5759 5760 5762 5763 5764
5518 5518 5520 5522 5523 5525 5529 5532 5537 5541 5545 5549 5552 5555 5557 5560 5563 5568 5572 5575 5577 5579 5584 5588 5590 5593 5596 5598 5601 5604 5606 5610 5615 5620 5625 5629 5632 5635 5637 5640 5644 5649 5654 5660 5664 5667 5672 5676 5679 5682 5684 5688 5691 5693 5695 5699 5701 5704 5707 5711 5715 5718 5721 5724 5727 5730 5732 5732 5733 5734 5736 5737 5739 5740 5741 5744 5746 5748 5749 5751 5753 5754 5755 5756 5757 5758 5759 5760
5522 5523 5525 5527 5528 5530 5534 5537 5541 5545 5548 5551 5554 5557 5560 5562 5564 5568 5571 5573 5576 5579 5581 5585 5590 5593 5596 5598 5601 5603 5606 5611 5615 5619 5624 5629 5632 5635 5637 5639 5642 5647 5653 5659 5663 5666 5670 5674 5676 5679 5681 5682 5685 5688 5691 5695 5699 5701 5704 5708 5712 5715 5718 5721 5724 5726 5728 5729 5730 5731 5733 5734 5735 5736 5738 5741 5743 5744 5746 5748 5749 5750 5751 5752 5754 5755 5756 5757
5526 5527 5530 5532 5533 5535 5538 5542 5545 5548 5551 5553 5556 5559 5562 5563 5565 5568 5570 5572 5576 5578 5581 5584 5588 5591 5595 5598 5601 5603 5607 5610 5613 5616 5621 5626 5630 5633 5636 5639 5642 5647 5653 5658 5662 5665 5668 5672 5675 5678 5680 5681 5684 5688 5692 5695 5698 5700 5703 5705 5709 5712 5715 5718 5720 5722 5725 5726 5727 5728 5729 5730 5731 5733 5736 5737 5739 5741 5743 5744 5745 5746 5748 5749 5750 5752 5753 5754
5531 5532 5533 5535 5538 5540 5543 5546 5548 5551 5553 5555 5557 5560 5562 5564 5567 5569 5571 5573 5576 5580 5583 5586 5588 5592 5595 5599 5601 5604 5608 5611 5612 5615 5618 5623 5628 5631 5635 5639 5642 5646 5652 5656 5659 5663 5666 5669 5674 5677 5679 5681 5684 5688 5691 5693 5695 5699 5701 5703 5706 5709 5713 5715 5717 5719 5721 5724 5724 5725 5726 5727 5729 5731 5733 5734 5736 5738 5740 5741 5742 5743 5745 5746 5747 5748 5750 5751
5537 5538 5539 5540 5542 5545 5547 5550 5552 5554 5556 5558 5560 5562 5563 5565 5568 5570 5572 5575 5579 5582 5585 5587 5589 5593 5596 5599 5602 5605 5608 5611 5613 5616 5619 5623 5627 5630 5634 5638 5642 5646 5650 5654 5657 5660 5663 5667 5671 5675 5677 5679 5682 5685 5687 5689 5691 5695 5699 5702 5704 5706 5710 5713 5714 5715 5717 5719 5721 5722 5723 5725 5727 5729 5730 5731 5733 5735 5737 5738 5740 5741 5742 5743 5744 5745 5747 5748
5542 5543 5545 5546 5548 5550 5552 5554 5556 5557 5559 5561 5562 5564 5565 5567 5569 5571 5573 5576 5579 5582 5585 5587 5590 5593 5596 5598 5601 5603 5606 5609 5613 5615 5617 5621 5625 5629 5632 5636 5641 5644 5648 5651 5654 5657 5661 5665 5668 5671 5674 5677 5680 5682 5683 5686 5689 5691 5695 5699 5701 5703 5706 5709 5711 5712 5713 5716 5717 5719 5720 5721 5723 5725 5727 5728 5730 5732 5733 5735 5737 5738 5740 5741 5742 5742 5744 5745
5547 5549 5550 5551 5553 5555 5556 5558 5559 5561 5561 5562 5564 5566 5567 5569 5570 5573 5575 5577 5580 5582 5585 5587 5590 5593 5595 5598 5599 5601 5604 5608 5612 5614 5616 5619 5623 5627 5631 5635 5638 5642 5645 5649 5651 5654 5658 5661 5664 5668 5671 5675 5677 5679 5680 5684 5687 5688 5690 5693 5696 5698 5701 5704 5706 5707 5710 5712 5713 5714 5716 5717 5719 5722 5724 5725 5727 5729 5731 5732 5733 5735 5737 5738 5739 5740 5741 5742
5552 5553 5555 5556 5557 5559 5560 5561 5563 5564 5564 5565 5566 5568 5569 5570 5572 5574 5576 5578 5580 5583 5585 5588 5590 5593 5596 5598 5599 5601 5605 5608 5611 5614 5616 5619 5622 5626 5629 5632 5635 5639 5644 5646 5648 5652 5656 5658 5661 5665 5668 5672 5674 5676 5678 5681 5684 5686 5688 5689 5692 5694 5697 5699 5701 5703 5706 5709 5710 5711 5713 5714 5717 5719 5721 5723 5725 5727 5728 5729 5730 5732 5734 5735 5736 5737 5738 5739
5556 5557 5558 5560 5561 5562 5563 5564 5565 5566 5567 5567 5567 5569 5569 5571 5572 5574 5575 5577 5580 5583 5586 5588 5591 5594 5596 5599 5601 5603 5606 5609 5611 5614 5617 5619 5622 5624 5627 5630 5633 5637 5641 5644 5646 5649 5653 5656 5658 5662 5665 5668 5671 5673 5676 5679 5681 5683 5685 5687 5689 5691 5693 5695 5697 5698 5702 5705 5707 5708 5710 5712 5714 5717 5719 5721 5722 5724 5725 5726 5728 5729 5731 5732 5733 5734 5735 5736